Location: ??????
(41.3164°N, 22.6615°E)
Time: 14:14:24
(UTC+00:00)

CUBESAT XI-V - Pass Details

Date: 08 July 2022
Orbit: 668 x 690 km, 98.1° (Epoch: 18 August)

Event Time Altitude Azimuth Distance (km) Brightness Sun altitude
Exits shadow 23:33:09 25° 108° (ESE) 1,339 ? -24.9°
Maximum altitude 23:34:48 33° 69° (ENE) 1,129 ? -24.8°
Drops below altitude 10° 23:38:54 10° 6° (N) 2,103 ? -24.6°
Sets 23:41:18 0° 357° (N) 3,021 ? -24.4°
